Hourly Data Report for March 17, 2021

KUGAARUK CLIMATE
NUNAVUT
Current Station Operator: ECCC - MSC

68°32'15.060" N
89°47'47.020" W
15.80 m
2303094
71407
NBB

Download Data

Hourly Data (March 2021)
Hourly Data Report for March 17, 2021
TIME
LST
Temp Definition
°C
Dew Point Definition
°C
Rel Hum Definition
%
Precip. Amount Definition
mm

Wind Dir Definition
10's deg

Wind Spd Definition
km/h
Visibility Definition
km
Stn Press Definition
kPa
Hmdx Definition


Wind Chill Definition


Weather Definition


00:00 -27.9 -31.4 72 0.0 24 27   100.56   -42 LegendNANA
01:00 -28.7 -32.2 72 0.0 23 28   100.62   -43 LegendNANA
02:00 -28.4 -31.8 73 0.0 22 21   100.68   -41 LegendNANA
03:00 -28.4 -31.7 73 0.0 22 18   100.72   -40 LegendNANA
04:00 -30.0 -33.6 70 0.0 24 23   100.78   -44 LegendNANA
05:00 -29.2 -33.2 69 0.0 22 32   100.82   -45 LegendNANA
06:00 -30.4 -34.5 67 0.0 24 27   100.88   -45 LegendNANA
07:00 -29.0 -33.3 66 0.0 24 36   100.83   -45 LegendNANA
08:00 -28.8 -33.1 66 0.0 24 25   100.88   -43 LegendNANA
09:00 -28.3 -32.8 65 0.0 23 29   100.92   -43 LegendNANA
10:00 -28.5 -33.0 65 0.2 23 31   100.92   -44 LegendNANA
11:00 -28.3 -33.0 64 0.0 25 21   100.95   -41 LegendNANA
12:00 -28.4 -33.1 64 0.0 25 26   100.91   -43 LegendNANA
13:00 -28.3 -33.0 64 0.0 25 15   100.96   -39 LegendNANA
14:00 -27.9 -32.3 66 0.0 25 15   100.95   -39 LegendNANA
15:00 -27.5 -31.8 67 0.0 23 22   100.94   -40 LegendNANA
16:00 -28.3 -32.1 70 0.0 24 31   100.90   -44 LegendNANA
17:00 -28.7 -32.3 71 0.0 24 30   100.86   -44 LegendNANA
18:00 -27.0 -30.2 74 0.0 24 37   100.82   -43 LegendNANA
19:00 -26.0 -29.4 73 0.0 22 34   100.83   -41 LegendNANA
20:00 -25.9 -29.3 73 0.0 23 38   100.79   -42 LegendNANA
21:00 -26.0 -29.7 71 0.0 23 30   100.82   -40 LegendNANA
22:00 -26.1 -29.4 74 0.0 23 32   100.81   -41 LegendNANA
23:00 -26.4 -29.8 73 0.0 24 34   100.79   -42 LegendNANA

Notes on Data Quality.

Legend

  • E = Estimated
  • M = Missing
  • NA = Not Available*
  • [empty] = Indicates an unobserved value
Date modified: